Tracking 33407 objects as of 5-Mar-2026
HD Live streaming from Space Station
objects crossing your sky now

STARLINK-31810

Track STARLINK-31810 now!
10-day predictions
STARLINK-31810 is classified as:


NORAD ID: 59799
Int'l Code: 2024-093T
Perigee: 489.4 km
Apogee: 490.9 km
Inclination: 43.0 °
Period: 94.3 minutes
Semi major axis: 6861 km
RCS: Unknown
Launch date: May 18, 2024
Source: United States (US)
Launch site: AIR FORCE EASTERN TEST RANGE (AFETR)
Your satellite tracking list
Your tracking list is empty




NASA's NSSDC Master Catalog

Two Line Element Set (TLE):
1 59799U 24093T   26063.52702686  .00001005  00000-0  46028-4 0  9990
2 59799  43.0016 238.2378 0001093 274.1709  85.9018 15.27578823101901
Source of the keplerian elements: AFSPC